• In Czech Republic
  • List of Countries
  • For 7 days
  • Water Temperature
  • Satellite Maps
  • Weather Map
  • Weather Widgets
  • user-avatar
    Login

    Hourly Weather Bronow

    Today, 21 August, Tuesday

    Time Temperature Precipitation Wind Pressure Humidity
    00:00 +19°C° 0 mm 2 mps 750 mmHg 79%
    01:00 +19°C° 0 mm 2 mps 750 mmHg 82%
    02:00 +18°C° 0 mm 2 mps 750 mmHg 82%
    03:00 +18°C° 0 mm 2 mps 750 mmHg 82%
    04:00 +18°C° 0 mm 2 mps 750 mmHg 82%
    05:00 +18°C° 0 mm 2 mps 751 mmHg 79%
    06:00 +19°C° 0 mm 2 mps 751 mmHg 76%
    07:00 +19°C° 0 mm 2 mps 751 mmHg 72%
    08:00 +20°C° 0 mm 3 mps 751 mmHg 66%
    09:00 +21°C° 0 mm 3 mps 752 mmHg 61%
    10:00 +22°C° 0 mm 3 mps 752 mmHg 55%
    11:00 +24°C° 0 mm 3 mps 752 mmHg 52%
    12:00 +23°C° 0 mm 4 mps 752 mmHg 50%
    13:00 +25°C° 0 mm 4 mps 752 mmHg 47%
    14:00 +25°C° 0 mm 3 mps 751 mmHg 45%
    15:00 +25°C° 0 mm 3 mps 751 mmHg 44%
    16:00 +25°C° 0 mm 3 mps 751 mmHg 42%
    17:00 +24°C° 0 mm 3 mps 751 mmHg 46%
    18:00 +23°C° 0 mm 2 mps 751 mmHg 49%
    19:00 +20°C° 0 mm 2 mps 751 mmHg 52%
    20:00 +20°C° 0 mm 2 mps 752 mmHg 54%
    21:00 +19°C° 0 mm 2 mps 752 mmHg 56%
    22:00 +19°C° 0 mm 1 mps 752 mmHg 57%
    23:00 +17°C° 0 mm 2 mps 752 mmHg 60%

    Tomorrow, 22 August, Wednesday

    Time Temperature Precipitation Wind Pressure Humidity
    00:00 +17°C° 0 mm 2 mps 753 mmHg 62%
    01:00 +16°C° 0 mm 2 mps 753 mmHg 65%
    02:00 +16°C° 0 mm 2 mps 753 mmHg 66%
    03:00 +15°C° 0 mm 2 mps 753 mmHg 68%
    04:00 +15°C° 0 mm 2 mps 753 mmHg 70%
    05:00 +16°C° 0 mm 2 mps 753 mmHg 67%
    06:00 +17°C° 0 mm 2 mps 753 mmHg 65%
    07:00 +18°C° 0 mm 3 mps 753 mmHg 62%
    08:00 +20°C° 0 mm 3 mps 753 mmHg 57%
    09:00 +22°C° 0 mm 3 mps 753 mmHg 51%
    10:00 +25°C° 0 mm 3 mps 753 mmHg 45%
    11:00 +26°C° 0 mm 3 mps 752 mmHg 42%
    12:00 +26°C° 0 mm 3 mps 752 mmHg 40%
    13:00 +27°C° 0 mm 3 mps 752 mmHg 37%
    14:00 +28°C° 0 mm 3 mps 751 mmHg 37%
    15:00 +28°C° 0 mm 3 mps 751 mmHg 37%
    16:00 +28°C° 0 mm 3 mps 751 mmHg 37%
    17:00 +26°C° 0 mm 3 mps 751 mmHg 42%
    18:00 +25°C° 0 mm 2 mps 750 mmHg 47%
    19:00 +23°C° 0 mm 2 mps 750 mmHg 52%
    20:00 +21°C° 0 mm 3 mps 750 mmHg 54%
    21:00 +21°C° 0 mm 3 mps 750 mmHg 55%
    22:00 +20°C° 0 mm 3 mps 751 mmHg 57%
    23:00 +20°C° 0 mm 3 mps 750 mmHg 59%

    Day after tomorrow, 23 August, Thursday

    Time Temperature Precipitation Wind Pressure Humidity
    00:00 +19°C° 0 mm 3 mps 750 mmHg 61%
    01:00 +19°C° 0 mm 3 mps 750 mmHg 64%
    02:00 +18°C° 0 mm 3 mps 750 mmHg 66%
    03:00 +18°C° 0 mm 3 mps 749 mmHg 69%
    04:00 +18°C° 0 mm 3 mps 749 mmHg 72%
    05:00 +19°C° 0 mm 3 mps 749 mmHg 71%
    06:00 +20°C° 0 mm 3 mps 749 mmHg 69%
    07:00 +21°C° 0 mm 3 mps 749 mmHg 67%
    08:00 +24°C° 0 mm 3 mps 749 mmHg 61%
    09:00 +26°C° 0 mm 3 mps 748 mmHg 54%
    10:00 +28°C° 0 mm 3 mps 748 mmHg 48%
    11:00 +29°C° 0 mm 3 mps 748 mmHg 45%
    12:00 +30°C° 0 mm 3 mps 747 mmHg 42%
    13:00 +31°C° 0 mm 2 mps 747 mmHg 39%
    14:00 +31°C° 0 mm 2 mps 747 mmHg 40%
    15:00 +31°C° 0 mm 2 mps 746 mmHg 41%
    16:00 +30°C° 0 mm 1 mps 746 mmHg 42%
    17:00 +29°C° 0 mm 1 mps 746 mmHg 45%
    18:00 +28°C° 0 mm 2 mps 746 mmHg 48%
    19:00 +27°C° 0 mm 2 mps 746 mmHg 51%
    20:00 +26°C° 0.6 mm 2 mps 745 mmHg 56%
    21:00 +25°C° 0.6 mm 2 mps 745 mmHg 62%
    22:00 +22°C° 0.6 mm 3 mps 745 mmHg 67%
    23:00 +22°C° 0.5 mm 3 mps 745 mmHg 71%

    24 August, Friday

    Time Temperature Precipitation Wind Pressure Humidity
    00:00 +22°C° 0.5 mm 3 mps 745 mmHg 74%
    01:00 +21°C° 0.5 mm 3 mps 744 mmHg 78%
    02:00 +21°C° 0.1 mm 3 mps 744 mmHg 80%
    03:00 +20°C° 0.1 mm 3 mps 743 mmHg 82%
    04:00 +20°C° 0.1 mm 3 mps 743 mmHg 84%
    05:00 +21°C° 0 mm 3 mps 743 mmHg 82%
    06:00 +21°C° 0 mm 3 mps 743 mmHg 79%
    07:00 +22°C° 0 mm 3 mps 743 mmHg 76%
    08:00 +25°C° 0.4 mm 4 mps 743 mmHg 70%
    09:00 +26°C° 0.4 mm 4 mps 743 mmHg 64%
    10:00 +28°C° 0.4 mm 4 mps 744 mmHg 59%
    11:00 +27°C° 0.7 mm 4 mps 743 mmHg 58%
    12:00 +27°C° 0.7 mm 5 mps 743 mmHg 58%
    13:00 +27°C° 0.7 mm 5 mps 743 mmHg 58%
    14:00 +27°C° 0.8 mm 5 mps 743 mmHg 60%
    15:00 +26°C° 0.8 mm 4 mps 743 mmHg 62%
    16:00 +25°C° 0.8 mm 4 mps 743 mmHg 64%
    17:00 +24°C° 0.5 mm 3 mps 743 mmHg 65%
    18:00 +23°C° 0.5 mm 2 mps 744 mmHg 67%
    19:00 +21°C° 0.5 mm 2 mps 744 mmHg 69%
    20:00 +21°C° 0.1 mm 2 mps 744 mmHg 69%
    21:00 +20°C° 0.1 mm 3 mps 744 mmHg 69%
    22:00 +19°C° 0.1 mm 3 mps 745 mmHg 69%
    23:00 +18°C° 0.3 mm 4 mps 745 mmHg 73%

    25 August, Saturday

    Time Temperature Precipitation Wind Pressure Humidity
    00:00 +16°C° 0.3 mm 5 mps 745 mmHg 77%
    01:00 +15°C° 0.3 mm 5 mps 745 mmHg 81%
    02:00 +14°C° 0.4 mm 4 mps 746 mmHg 82%
    03:00 +14°C° 0.4 mm 4 mps 746 mmHg 82%
    04:00 +13°C° 0.4 mm 3 mps 746 mmHg 82%
    05:00 +14°C° 0 mm 3 mps 747 mmHg 79%
    06:00 +14°C° 0 mm 4 mps 747 mmHg 76%
    07:00 +14°C° 0 mm 4 mps 747 mmHg 73%
    08:00 +15°C° 0 mm 4 mps 747 mmHg 66%
    09:00 +17°C° 0 mm 4 mps 747 mmHg 59%
    10:00 +19°C° 0 mm 4 mps 747 mmHg 51%
    11:00 +19°C° 0 mm 4 mps 747 mmHg 48%
    12:00 +20°C° 0 mm 4 mps 746 mmHg 46%
    13:00 +20°C° 0 mm 4 mps 746 mmHg 43%
    14:00 +20°C° 0 mm 3 mps 746 mmHg 43%
    15:00 +20°C° 0 mm 3 mps 745 mmHg 43%
    16:00 +20°C° 0 mm 3 mps 745 mmHg 43%
    17:00 +19°C° 0 mm 2 mps 745 mmHg 46%
    18:00 +18°C° 0 mm 2 mps 745 mmHg 49%
    19:00 +17°C° 0 mm 2 mps 745 mmHg 52%
    20:00 +17°C° 0 mm 2 mps 744 mmHg 54%
    21:00 +16°C° 0 mm 2 mps 744 mmHg 56%
    22:00 +16°C° 0 mm 2 mps 744 mmHg 58%
    23:00 +16°C° 0 mm 3 mps 743 mmHg 58%

    26 August, Sunday

    Time Temperature Precipitation Wind Pressure Humidity
    00:00 +16°C° 0 mm 3 mps 743 mmHg 59%
    01:00 +15°C° 0 mm 4 mps 743 mmHg 59%
    02:00 +14°C° 0 mm 4 mps 742 mmHg 61%
    03:00 +14°C° 0 mm 4 mps 742 mmHg 63%
    04:00 +14°C° 0 mm 4 mps 741 mmHg 65%
    05:00 +14°C° 0 mm 5 mps 741 mmHg 63%
    06:00 +15°C° 0 mm 5 mps 741 mmHg 62%
    07:00 +16°C° 0 mm 6 mps 740 mmHg 61%
    08:00 +16°C° 0.1 mm 6 mps 740 mmHg 63%
    09:00 +16°C° 0.1 mm 6 mps 740 mmHg 65%
    10:00 +17°C° 0.1 mm 6 mps 740 mmHg 67%
    11:00 +19°C° 0 mm 6 mps 740 mmHg 65%
    12:00 +19°C° 0 mm 6 mps 739 mmHg 64%
    13:00 +20°C° 0 mm 7 mps 739 mmHg 62%
    14:00 +20°C° 0.4 mm 7 mps 739 mmHg 65%
    15:00 +18°C° 0.4 mm 7 mps 739 mmHg 69%
    16:00 +17°C° 0.4 mm 7 mps 738 mmHg 72%
    17:00 +17°C° 0.4 mm 6 mps 739 mmHg 73%
    18:00 +16°C° 0.4 mm 6 mps 739 mmHg 73%
    19:00 +15°C° 0.4 mm 6 mps 739 mmHg 73%
    20:00 +14°C° 0 mm 6 mps 740 mmHg 72%
    21:00 +14°C° 0 mm 6 mps 740 mmHg 71%
    22:00 +13°C° 0 mm 6 mps 740 mmHg 70%
    23:00 +13°C° 0 mm 6 mps 741 mmHg 73%
    Show more